Wind_Speed
72 72 72 72 72 71 71 72 73 73 74 75 76 77 78 79 79 80 81 83 85 88 90 93 95 97 98 97 95 92 87 81 75 70 67 64 63 61 60 59 57 56 56 55 55 55 55 54 54 55 56 56 57 58 60 62 64 66 69 71 74 76 79 81 81 80 79 79 80 81 82 83 84 86 89 91 93 95 97 98 99 99 99 99 99
73 73 73 72 72 72 72 72 73 74 75 76 77 78 78 79 80 80 82 84 86 89 91 94 96 97 97 95 92 87 81 74 69 65 63 61 59 58 57 55 54 53 53 52 52 52 51 51 51 52 53 53 53 54 56 58 60 62 64 66 69 72 75 78 79 80 79 78 79 81 83 83 83 85 86 88 90 94 96 97 99 100 100 100 100
73 73 73 72 72 72 72 73 74 74 75 76 77 78 79 79 80 81 83 85 87 90 92 94 96 96 95 92 87 81 74 69 65 62 59 58 56 55 54 53 52 51 50 49 48 48 48 48 48 49 50 50 50 52 53 54 56 57 59 61 63 65 69 72 75 77 77 77 79 81 83 83 84 85 86 86 88 91 93 95 98 99 100 101 100
74 73 73 73 72 72 73 73 74 75 76 77 78 79 79 80 81 82 84 86 88 91 93 95 96 95 92 88 82 75 69 64 61 59 57 55 53 52 50 50 49 48 47 46 45 45 45 45 46 47 47 47 48 50 51 52 52 53 54 56 58 60 62 65 67 70 72 74 76 79 82 83 84 85 87 87 87 88 90 93 96 98 100 101 102
74 73 73 72 72 72 73 73 74 75 77 78 79 79 79 80 81 83 85 87 89 92 94 95 94 93 89 83 75 69 65 61 58 56 54 52 50 49 48 47 47 46 44 43 43 43 43 43 44 44 45 45 46 47 49 50 50 51 52 53 54 55 57 59 61 63 65 66 69 74 78 82 83 85 87 88 88 88 89 90 93 96 98 100 102
74 73 72 72 72 72 72 73 75 76 77 78 79 79 80 81 82 83 86 88 90 92 94 94 92 90 85 77 70 65 61 59 56 53 52 50 48 47 45 45 45 43 42 41 41 41 41 41 41 42 42 43 44 46 47 48 49 49 50 51 52 53 54 55 56 57 58 59 61 65 70 75 79 82 85 88 89 90 90 90 91 93 96 98 100
73 73 72 72 71 72 73 74 75 76 78 78 78 79 80 81 82 84 86 88 91 92 93 92 90 86 79 71 65 61 58 56 53 51 49 47 46 45 44 43 43 41 40 40 40 39 39 38 39 39 40 41 42 43 45 46 47 48 49 50 51 52 53 54 54 55 55 55 56 58 61 66 70 75 80 85 88 90 91 92 92 93 94 96 98
73 72 72 71 71 72 73 74 75 77 78 78 78 79 80 82 83 85 87 89 91 92 92 90 87 81 73 66 61 58 55 53 51 49 47 45 44 43 43 42 41 40 39 38 38 37 36 36 37 37 38 39 40 41 42 44 45 46 47 49 50 51 52 53 53 54 54 53 53 55 57 60 63 66 70 75 81 86 91 94 94 93 93 95 96
72 72 71 71 71 72 73 74 76 77 78 78 79 80 81 82 83 85 87 89 90 91 90 88 83 75 67 62 58 55 52 50 48 47 45 44 43 42 42 41 40 39 38 37 37 36 35 35 36 36 37 37 38 39 40 42 43 44 46 48 49 50 51 52 52 53 53 53 53 54 56 57 59 61 62 66 71 77 83 89 92 93 95 95 95
71 70 70 70 71 72 73 75 76 77 78 78 79 80 81 82 84 86 87 89 90 90 88 84 78 69 62 58 55 52 49 47 45 44 43 42 42 41 41 40 40 39 38 37 36 35 34 35 36 37 37 37 38 39 40 41 42 44 45 47 48 50 51 51 52 53 53 53 53 55 56 56 58 59 60 62 65 69 74 79 85 90 94 97 96
70 69 69 70 71 72 74 75 76 77 78 78 79 80 81 82 84 86 87 88 89 88 85 80 72 64 58 54 51 49 46 45 43 42 41 41 41 40 40 40 39 39 38 37 36 35 35 35 36 37 38 38 39 39 40 41 42 44 46 47 49 50 51 52 52 53 53 54 54 55 57 57 58 59 61 62 64 67 70 73 77 81 88 94 96
69 69 69 70 71 73 75 76 77 77 78 79 80 80 81 83 84 86 87 88 87 85 82 76 66 59 55 51 48 46 44 43 41 40 39 40 40 40 39 39 39 38 37 37 36 36 36 36 37 38 38 39 39 40 40 41 43 44 46 47 49 50 52 52 53 53 54 54 54 55 57 58 59 60 62 63 65 67 70 72 74 77 80 86 91
69 69 69 70 71 74 75 76 77 77 78 79 80 80 82 83 84 86 87 87 86 83 79 70 61 55 51 48 46 44 42 41 40 39 39 39 40 40 39 38 37 37 37 37 37 37 37 37 38 39 39 40 41 41 41 42 44 45 46 48 49 49 51 52 53 54 55 55 55 55 56 59 60 60 62 64 66 67 70 72 74 76 78 80 84
68 68 69 70 72 74 75 76 77 77 78 79 80 81 82 83 84 86 86 86 84 80 74 65 57 52 48 46 44 41 40 40 39 38 38 39 39 39 39 37 37 37 37 37 38 38 38 39 39 40 41 42 42 42 42 44 45 47 47 48 49 49 50 51 52 53 55 55 55 55 56 58 59 60 62 64 66 68 71 73 74 76 78 80 81
68 68 69 71 73 75 76 76 77 77 78 79 80 81 82 83 84 86 86 84 81 77 70 61 54 49 46 44 42 40 39 39 38 38 38 38 39 39 38 37 37 37 37 38 39 39 39 40 41 42 42 43 43 44 44 46 48 48 48 49 49 50 50 51 52 52 53 55 55 55 55 57 59 60 61 64 66 68 70 73 74 76 78 80 81
68 68 69 72 74 75 76 76 76 77 78 79 80 81 82 83 85 85 85 82 79 74 65 57 51 47 44 43 41 39 38 38 38 37 38 39 39 39 38 37 37 37 38 39 40 40 41 41 42 43 43 43 44 45 47 49 50 50 49 50 50 51 51 51 52 53 53 54 54 54 55 56 58 60 61 64 66 68 69 70 72 74 76 78 80
67 68 70 73 75 76 76 76 77 77 78 79 80 81 83 84 85 85 83 80 76 69 61 53 49 45 43 42 40 38 37 38 38 38 38 39 39 39 38 38 38 38 39 40 41 42 42 43 44 44 44 44 45 47 49 51 51 50 50 51 52 52 51 51 52 53 53 54 53 54 54 55 57 59 61 63 66 67 68 69 69 71 74 76 77
67 68 71 74 75 76 76 76 77 78 79 79 81 82 83 84 84 83 81 77 72 65 57 51 47 44 42 41 40 38 37 38 39 38 38 39 39 39 38 39 39 39 40 42 43 43 44 44 45 45 44 45 47 48 51 53 52 52 52 53 53 52 52 52 52 52 53 53 53 53 54 56 58 59 60 62 64 66 67 68 68 70 71 73 75
67 70 72 75 76 76 76 77 77 78 79 80 81 82 83 84 83 81 79 74 68 61 54 49 45 42 41 40 39 38 38 38 39 39 38 39 40 39 39 39 39 40 41 43 43 44 44 45 45 46 46 47 48 49 52 54 53 53 54 55 55 54 53 53 53 52 51 51 51 52 54 55 58 59 60 61 63 64 65 66 67 68 69 70 72
68 71 73 75 76 76 77 77 78 79 79 80 81 83 83 83 82 79 76 71 64 57 51 47 44 41 40 39 39 39 38 38 39 39 39 39 40 40 40 39 40 41 42 43 44 44 44 45 45 47 48 48 49 50 53 55 54 54 56 57 56 55 54 54 53 52 51 51 51 52 52 54 56 58 60 61 61 62 63 64 66 67 68 68 69
69 72 75 76 77 77 78 78 79 79 80 81 82 83 83 82 80 76 72 67 60 53 49 46 42 40 39 39 38 39 38 38 38 39 39 40 41 41 41 40 41 42 42 43 43 43 43 44 45 47 49 49 50 51 53 55 56 57 59 59 58 57 55 54 52 52 52 51 52 52 52 52 54 56 58 59 60 61 61 62 63 65 66 67 68
71 74 76 77 77 78 78 79 79 80 81 82 83 83 83 81 77 73 69 62 56 51 47 44 41 38 38 38 38 38 38 38 37 38 39 40 40 42 42 41 42 43 42 42 42 43 43 45 46 48 49 50 51 52 53 55 58 60 60 61 60 58 55 54 53 53 53 52 52 52 52 52 53 54 56 57 58 59 59 60 61 63 64 65 67
73 75 77 77 77 78 79 79 80 81 82 83 83 82 81 79 75 70 65 59 53 49 46 43 40 37 37 38 38 38 38 38 37 38 39 40 40 41 42 42 43 43 43 42 42 43 44 45 47 48 49 50 51 53 55 57 59 60 61 61 61 58 55 55 55 54 53 53 53 52 52 52 52 53 54 55 56 57 57 57 59 61 62 63 64
74 76 77 77 78 79 79 80 81 81 83 83 83 82 79 76 72 67 61 55 51 47 44 42 39 37 36 37 38 38 38 38 38 38 39 39 40 41 42 43 43 43 43 43 43 43 44 45 47 48 49 50 52 54 56 58 59 60 60 60 59 57 56 56 55 54 53 54 54 53 53 53 53 52 52 53 53 53 54 55 56 58 60 60 60
76 77 77 78 79 79 80 80 81 82 84 84 83 80 77 73 68 63 57 53 49 46 43 41 38 37 36 36 37 37 38 38 38 39 40 40 40 41 42 42 43 44 44 44 44 45 45 46 46 47 49 51 53 55 57 58 59 59 59 58 57 57 56 56 54 53 53 53 53 53 53 53 53 52 52 51 51 50 51 52 54 55 57 58 58
76 77 77 79 80 80 80 81 82 83 84 83 81 78 74 70 65 59 54 51 48 45 42 40 38 36 36 36 36 37 38 38 39 40 41 41 41 42 42 42 42 43 44 45 46 46 46 46 47 49 50 52 54 55 56 57 58 58 58 57 56 56 56 55 54 53 53 52 53 53 53 53 53 53 51 51 50 48 47 49 51 53 54 56 55
76 77 78 79 80 81 81 82 82 83 83 82 79 75 71 66 61 55 52 49 47 44 41 39 37 36 35 35 36 36 37 38 39 41 42 42 43 43 43 42 43 43 44 45 46 47 47 47 49 51 53 54 55 55 56 57 57 57 56 56 56 55 55 54 53 53 52 52 52 52 52 52 53 53 51 50 48 46 45 46 48 49 51 54 53
77 78 79 80 81 81 82 82 83 83 82 79 76 71 67 62 57 53 50 49 46 42 39 38 37 36 35 35 36 36 37 38 40 41 42 43 44 44 44 44 44 45 45 46 47 47 48 49 51 53 54 55 55 56 56 57 57 57 56 55 55 54 54 53 52 52 51 52 51 51 50 51 52 52 51 49 47 44 43 43 44 46 48 50 50
78 79 80 81 81 82 83 83 83 82 79 75 71 67 63 59 54 50 49 48 45 41 38 37 36 35 35 35 36 36 36 38 40 41 42 44 45 45 45 46 46 47 47 47 47 48 49 51 52 54 55 55 56 57 57 58 57 57 56 55 54 54 53 53 52 51 51 50 50 49 49 50 51 51 51 49 46 43 41 41 42 43 44 46 46
79 80 81 82 83 83 84 83 82 79 76 71 67 62 58 55 52 49 47 46 44 41 38 37 36 36 35 35 37 37 38 38 40 42 43 44 45 45 46 47 48 48 48 48 48 48 50 52 53 53 54 54 55 56 57 58 59 58 57 56 55 54 53 53 52 51 50 49 48 47 47 48 49 49 49 48 46 43 39 38 39 39 40 42 43
80 81 82 83 84 85 84 82 79 76 71 67 62 58 54 51 49 48 46 44 42 40 39 37 36 36 36 36 36 37 38 39 40 41 43 44 46 46 47 47 48 47 47 47 48 48 50 52 52 53 53 53 54 55 56 57 58 58 58 57 56 54 53 53 53 52 50 49 47 46 46 46 46 47 47 47 45 42 39 36 35 36 37 38 39
81 82 84 85 85 85 83 79 75 71 67 62 58 55 51 47 45 45 45 43 41 39 39 38 37 37 37 37 37 38 38 39 40 41 42 44 46 47 48 48 48 49 48 48 49 50 51 52 52 53 53 54 54 55 56 56 57 57 57 56 55 55 54 53 53 52 50 49 47 46 45 45 44 44 45 45 43 41 38 35 33 33 34 35 37
83 84 85 86 85 83 80 75 71 66 62 58 55 52 49 45 42 41 41 41 40 39 39 39 39 39 39 39 40 40 40 41 41 42 43 45 47 48 49 48 49 50 50 50 51 52 52 53 53 53 54 54 55 55 56 56 56 56 56 55 54 54 53 53 52 51 50 48 47 45 44 44 43 43 43 43 41 39 37 34 32 31 32 33 35
85 85 86 86 83 79 75 70 66 62 58 55 52 49 46 44 41 39 37 36 36 37 39 40 41 41 41 41 41 42 42 43 44 45 46 47 48 49 50 50 50 52 52 52 52 53 53 53 54 54 54 55 55 56 56 57 57 57 56 55 53 53 52 51 50 49 48 47 46 44 43 42 42 41 41 40 39 37 35 33 30 30 31 32 33
86 86 86 84 80 75 70 65 61 58 54 51 49 46 43 41 39 37 35 33 33 34 36 39 41 42 42 43 44 44 43 44 45 47 48 49 51 52 52 52 52 53 54 54 54 54 54 54 55 55 55 56 56 56 57 57 57 57 56 54 53 52 51 50 49 48 47 46 44 43 42 41 40 40 39 38 37 35 34 31 29 28 29 30 31
87 86 84 81 76 70 65 61 58 54 51 48 45 43 40 38 37 35 33 33 33 34 35 38 40 41 43 44 45 45 45 46 47 48 50 52 53 55 55 55 55 55 56 56 56 56 56 56 56 56 57 57 57 57 57 57 56 56 55 53 52 51 49 49 48 47 46 44 43 41 40 39 39 38 37 36 35 35 33 30 28 27 28 29 30
86 84 80 76 71 66 62 58 54 50 47 44 41 39 37 35 34 33 33 33 34 35 36 38 40 41 43 45 46 46 46 48 49 50 52 54 55 57 57 57 57 57 57 57 57 57 57 57 57 57 58 58 58 58 57 57 56 55 54 52 50 49 48 47 46 45 44 43 41 40 39 38 37 37 35 34 34 34 32 30 28 27 27 28 28
84 80 76 71 67 62 57 53 49 45 42 39 37 35 34 33 33 33 33 34 35 36 37 39 40 42 44 45 47 48 48 49 51 52 54 56 57 58 59 59 59 59 59 59 59 59 58 58 58 58 59 59 59 58 57 57 56 54 53 51 49 48 47 46 45 44 43 41 40 39 37 36 36 36 34 32 33 33 31 29 27 26 27 27 27
79 75 71 66 61 56 51 46 43 39 37 35 33 32 32 32 33 34 34 36 37 38 39 40 42 43 45 46 48 49 50 51 53 54 56 57 58 59 60 60 61 61 61 61 61 60 60 59 59 60 60 60 60 59 57 56 55 53 52 50 48 47 46 45 44 43 42 40 39 37 36 35 35 34 32 31 32 32 30 29 27 26 26 26 26
74 69 64 59 54 48 44 40 37 34 33 32 31 32 32 33 34 35 36 38 39 40 41 42 43 45 47 48 50 51 52 53 54 55 56 57 59 59 60 61 61 61 62 62 63 63 62 62 62 61 61 60 60 59 57 55 53 52 51 49 48 46 46 45 43 42 41 39 38 36 35 34 34 33 31 30 31 31 30 28 27 26 25 25 25
67 62 56 51 45 41 38 35 33 32 31 31 32 32 33 35 36 37 38 40 41 41 43 44 46 47 49 51 52 53 54 54 55 56 57 58 58 59 60 60 61 61 61 62 63 64 64 64 63 63 62 61 60 59 58 56 54 52 51 49 48 46 45 44 43 41 40 38 36 35 34 33 33 31 29 30 30 30 29 27 26 25 25 24 24
59 53 48 43 40 37 35 33 33 32 32 33 33 34 35 37 38 39 40 41 42 43 45 46 48 49 51 53 54 55 56 57 57 58 58 59 59 60 60 60 61 61 62 62 63 64 64 64 63 63 62 61 60 60 59 57 55 53 51 49 47 46 45 44 43 41 39 37 36 34 33 32 32 30 28 29 30 29 28 27 26 25 24 24 23
50 45 42 39 37 36 34 34 33 34 34 35 36 37 37 38 40 41 42 43 44 45 47 48 49 51 53 55 56 57 58 59 60 60 60 61 61 61 62 62 62 63 63 64 64 64 64 63 63 62 62 61 60 59 58 57 55 53 51 49 47 46 45 44 43 41 39 37 35 33 32 32 31 29 28 29 29 28 27 26 25 24 23 23 23
44 41 40 38 37 36 36 35 35 35 36 37 37 38 39 40 41 42 43 45 46 47 49 50 51 53 54 56 58 59 60 60 61 61 62 62 62 63 63 64 64 65 65 65 65 65 64 63 62 61 60 59 58 56 55 54 52 50 48 47 46 45 45 44 43 41 38 36 34 33 31 30 29 28 28 28 28 27 26 25 24 23 23 23 22
41 40 39 39 38 38 38 37 37 37 37 38 39 39 40 41 42 43 45 46 48 49 51 52 54 55 56 57 59 60 61 61 62 62 63 63 63 64 64 65 66 66 66 66 65 64 63 61 59 57 56 54 53 51 50 49 47 46 44 43 43 43 43 43 41 40 37 35 33 32 30 29 28 27 27 28 27 26 25 24 23 22 22 22 22
40 40 40 40 40 40 39 39 39 39 39 39 39 40 41 42 44 45 47 48 50 51 53 54 56 57 58 59 60 61 62 62 63 63 64 64 65 65 66 66 67 66 66 65 63 61 59 56 54 53 51 50 49 47 45 44 43 41 40 39 39 39 40 40 39 37 35 34 32 30 29 28 27 27 27 27 26 25 24 23 22 22 21 21 21
41 41 42 41 41 41 41 41 40 40 40 40 40 41 42 43 45 47 48 50 51 53 55 56 57 59 60 61 62 62 63 64 64 64 65 65 66 67 67 67 67 65 63 61 58 56 54 53 51 50 49 47 45 43 41 40 38 37 35 35 35 35 35 35 35 34 33 32 30 29 28 27 27 27 27 26 25 24 23 22 22 21 21 20 20
42 42 43 42 42 42 41 41 41 40 40 41 41 42 43 45 46 48 50 51 53 55 56 58 59 60 61 62 63 64 64 65 65 66 66 67 68 68 68 67 65 62 59 56 54 53 52 51 50 48 45 43 41 39 37 35 34 32 31 31 31 31 31 30 30 30 30 29 28 27 27 27 27 27 27 26 25 24 23 22 21 21 20 20 19
42 43 43 43 43 42 42 41 41 41 41 41 42 43 45 46 48 49 51 53 55 56 58 59 61 62 63 64 64 65 65 66 66 67 68 69 69 68 66 64 60 57 55 54 53 52 51 49 47 45 42 39 37 35 33 31 30 28 28 27 27 27 26 26 27 27 27 27 27 27 27 27 27 27 26 25 24 23 22 21 21 20 19 19 18
43 44 44 43 43 43 42 42 41 41 41 42 43 44 46 47 49 51 52 54 56 58 59 61 62 63 64 65 66 66 67 68 68 69 70 70 68 66 63 60 57 55 54 53 52 51 49 47 44 41 38 35 33 31 29 27 26 25 24 23 23 23 23 24 24 25 26 27 27 27 27 28 28 27 26 25 23 22 22 22 21 20 19 18 18
43 44 44 43 43 42 42 42 42 41 42 43 44 45 47 48 50 52 54 55 57 59 61 62 63 64 65 66 67 68 69 69 70 70 70 68 66 63 60 57 55 54 53 52 50 49 46 44 41 37 34 31 29 27 25 23 22 21 20 20 20 20 21 22 23 25 26 26 27 27 28 28 28 27 25 24 23 22 22 22 21 20 19 18 19
Wind_Direction
309 309 309 309 308 307 307 307 307 308 308 308 309 309 309 309 309 309 309 308 309 310 310 311 311 311 311 310 309 308 306 303 301 298 295 293 290 288 287 285 283 282 281 280 279 279 278 277 276 275 274 273 271 270 268 267 265 264 263 261 260 259 258 257 255 253 250 249 247 246 246 246 246 245 243 241 241 242 242 242 241 241 240 239 238
309 309 309 308 308 307 307 307 308 308 309 309 310 309 309 309 309 309 309 309 310 311 312 312 312 312 311 310 309 307 305 302 300 297 294 292 290 288 286 284 283 282 281 280 280 279 279 278 278 277 276 274 273 271 270 268 267 266 265 263 262 261 260 258 257 255 252 250 249 247 246 245 244 245 244 243 242 241 241 241 241 241 240 239 239
309 309 309 308 308 307 308 308 309 309 310 310 310 310 310 310 309 309 309 310 311 312 313 313 313 312 312 311 309 307 304 301 299 296 294 292 289 287 285 283 282 281 281 280 280 280 280 280 279 278 277 276 274 273 271 269 268 267 266 266 264 263 262 261 259 257 254 252 250 249 247 246 244 244 244 243 243 242 241 241 241 241 240 239 238
309 309 309 308 308 308 308 309 309 310 310 310 310 310 310 310 309 310 310 311 312 313 314 314 314 313 312 311 309 306 303 301 298 296 294 291 289 286 284 282 281 281 280 280 280 281 281 281 280 279 278 276 275 273 272 271 270 269 268 268 267 266 265 264 262 260 258 254 252 250 249 247 245 244 243 243 242 242 242 241 241 241 240 240 238
309 309 309 308 308 308 309 309 310 310 310 310 310 310 310 310 310 311 312 312 313 314 315 315 314 314 313 311 308 305 303 300 298 296 293 290 287 285 282 280 280 279 279 279 281 282 282 282 281 280 279 277 275 274 273 272 272 271 271 270 269 268 267 266 265 263 261 258 255 253 251 249 247 245 245 244 242 242 242 242 241 240 240 240 239
309 309 308 308 308 308 309 310 310 310 310 310 311 311 311 311 311 312 313 314 314 315 316 315 315 314 313 310 307 305 302 300 298 296 293 289 286 283 281 279 278 277 277 279 280 282 283 283 282 281 280 278 277 275 274 274 273 273 272 272 271 270 269 268 267 266 264 262 259 256 254 252 250 248 246 245 244 243 242 242 241 241 240 240 240
309 308 308 308 308 309 310 310 310 310 310 311 311 311 311 312 312 313 314 315 316 316 316 316 315 314 312 309 306 304 302 300 298 295 292 288 285 282 280 278 276 275 276 278 280 282 283 283 283 282 281 279 278 277 276 276 275 275 274 273 272 272 271 270 270 269 267 265 262 260 258 256 253 251 249 247 246 244 243 242 241 241 241 240 239
309 308 308 308 309 309 310 310 310 310 311 312 312 312 312 312 313 314 315 316 317 317 317 316 315 314 311 308 306 304 302 300 298 295 291 288 284 281 279 277 275 274 274 276 279 281 282 283 283 283 282 281 281 280 279 278 277 276 276 275 274 273 273 272 272 271 270 268 265 263 261 259 257 255 252 250 248 247 245 244 242 241 241 241 239
308 308 308 308 309 310 310 309 310 311 312 312 312 312 313 313 314 315 316 317 317 317 317 316 315 313 310 307 305 304 302 300 297 294 291 287 284 281 279 276 274 273 273 274 278 280 281 282 283 284 284 284 284 283 282 281 280 279 278 277 276 275 274 274 274 273 272 271 269 267 265 263 261 259 256 254 251 249 248 246 244 242 242 241 240
308 308 308 309 309 310 309 310 311 313 313 312 313 313 313 314 315 315 316 317 318 317 317 316 314 312 309 306 305 303 302 299 296 293 290 287 283 281 279 276 274 272 271 273 276 279 280 281 282 283 285 286 286 286 285 285 284 282 280 279 278 277 276 275 274 274 273 272 270 269 267 266 264 263 260 257 254 252 250 249 246 244 242 241 239
308 308 308 309 310 310 310 311 313 313 313 313 313 314 314 314 315 316 317 318 318 318 317 316 313 310 308 306 304 303 301 299 296 293 290 287 283 281 279 276 273 271 271 273 276 278 278 280 282 284 286 287 288 289 290 290 289 287 285 283 282 280 279 278 277 276 275 274 272 270 269 267 266 264 262 260 257 255 252 250 248 245 244 242 240
308 308 309 310 310 310 311 313 314 313 313 313 313 314 314 315 316 317 318 318 318 318 317 315 312 309 307 305 304 302 301 298 296 293 290 287 285 283 281 277 273 270 269 272 275 276 277 278 280 282 284 286 287 288 290 291 291 290 288 286 284 283 282 281 280 278 276 274 273 272 271 269 267 266 264 262 260 258 255 253 250 247 245 244 241
308 309 310 311 310 311 312 314 314 313 313 313 314 314 315 315 317 318 318 318 318 318 317 314 311 308 306 304 303 302 300 297 295 294 291 289 286 285 283 279 275 271 269 271 274 275 276 277 278 280 282 283 285 286 288 289 290 290 289 288 287 286 286 285 283 280 278 276 273 272 271 269 268 267 266 264 262 260 258 256 253 250 247 245 243
309 310 311 311 310 312 313 314 313 313 313 314 314 315 315 316 318 318 319 319 318 318 316 313 309 307 305 303 302 301 299 297 295 294 292 290 287 285 284 281 278 274 271 272 274 276 277 277 278 280 281 283 284 286 287 288 288 289 289 290 290 290 288 287 284 282 281 279 276 273 271 270 268 266 266 265 264 262 260 258 256 253 250 247 244
310 312 311 311 311 313 313 314 314 313 314 314 315 315 316 317 318 318 319 319 318 317 315 311 308 306 303 301 301 300 298 296 295 294 293 290 288 286 284 282 279 276 274 274 276 277 278 278 279 280 281 283 284 286 287 287 287 288 290 292 293 292 290 288 286 284 282 280 279 277 275 273 271 269 267 266 265 264 262 261 258 255 252 249 246
312 312 311 311 312 313 314 314 314 314 314 315 315 316 317 318 318 319 319 319 318 317 314 310 307 304 302 300 300 300 298 296 295 294 292 290 288 286 285 282 280 278 276 276 277 279 279 280 280 281 282 284 285 286 286 286 286 288 291 293 293 292 291 290 287 285 283 281 280 279 278 277 275 273 271 269 268 266 264 262 260 257 254 251 248
312 312 311 312 313 314 314 314 314 315 315 315 316 317 318 318 319 319 319 319 318 316 312 309 306 303 301 299 299 299 298 296 294 294 292 291 289 288 286 283 281 279 277 277 278 279 280 281 281 282 283 284 285 286 285 285 287 290 292 293 293 293 292 290 288 287 285 284 282 282 281 280 278 276 274 273 272 270 267 263 260 257 254 251 248
312 311 312 313 314 314 314 315 315 315 315 316 316 317 318 319 319 319 319 319 317 314 311 308 305 302 300 299 298 298 297 295 294 294 293 291 290 289 286 284 282 280 278 277 278 279 280 281 282 284 285 285 285 285 284 285 288 291 292 293 293 292 292 290 289 287 286 286 285 285 284 282 281 278 277 275 274 273 270 266 261 257 254 251 248
312 312 313 313 314 315 315 315 315 316 316 317 317 318 319 319 319 319 319 318 316 313 309 307 304 301 299 298 297 297 296 294 294 294 293 292 291 289 287 285 283 280 278 278 278 279 280 282 284 285 286 285 285 285 285 286 289 292 293 293 293 293 293 291 289 287 287 286 285 284 284 284 283 281 278 277 276 274 272 269 264 259 255 251 249
312 313 313 314 315 315 315 315 316 316 317 318 318 319 319 319 319 319 319 317 315 311 308 305 303 300 298 297 296 295 294 294 294 294 294 292 291 289 288 287 285 282 280 280 280 281 282 283 284 285 285 285 285 285 286 288 291 293 293 293 294 294 293 291 290 289 288 285 283 282 283 284 284 282 280 278 277 276 273 269 265 262 257 253 250
313 314 314 315 315 316 316 316 317 317 318 319 319 319 319 319 319 319 318 316 313 310 307 305 302 299 297 296 295 294 294 294 294 293 293 292 291 290 289 288 286 284 283 283 284 284 284 284 284 284 284 285 286 286 287 289 291 292 292 293 294 294 293 292 291 290 287 285 284 283 284 284 283 282 281 280 279 277 274 270 266 263 260 256 252
314 314 315 316 316 316 316 317 317 318 319 319 320 320 319 319 319 319 317 315 312 309 306 304 301 298 296 295 294 293 293 294 294 293 293 291 290 290 290 289 287 287 287 287 287 286 285 283 283 283 284 286 286 287 288 289 290 291 292 293 294 294 294 294 292 290 289 287 286 285 284 285 284 282 281 281 281 279 276 272 268 264 260 258 255
315 315 316 316 317 317 317 318 318 319 319 320 320 320 319 319 319 318 317 314 311 308 306 303 300 298 295 294 294 293 294 294 294 293 292 292 291 290 290 289 288 289 290 289 288 287 285 284 283 284 285 286 287 287 288 288 289 290 292 293 294 295 295 293 292 291 291 289 288 286 286 286 285 283 282 282 282 281 277 273 269 265 261 258 255
316 316 317 317 317 318 318 318 319 320 320 320 320 319 319 319 319 317 316 313 310 308 306 303 300 297 295 294 293 294 294 295 294 293 292 292 291 291 290 290 290 290 290 290 289 288 286 285 285 286 286 286 286 286 287 288 289 290 291 293 294 294 293 292 292 292 291 290 289 288 287 287 286 285 283 284 284 281 277 272 268 266 263 260 257
317 317 317 317 318 318 319 319 320 320 320 320 320 319 319 319 318 317 314 312 309 308 306 303 300 297 295 294 294 294 295 295 294 293 293 292 291 291 291 291 290 290 291 291 290 289 288 288 288 287 287 286 285 286 286 287 289 290 292 293 293 292 291 291 291 291 291 290 290 288 288 288 288 287 285 285 285 281 275 270 267 265 264 262 259
318 318 318 318 318 319 319 320 320 320 320 319 319 319 319 318 318 316 313 311 309 308 305 302 300 297 295 294 294 294 294 294 294 293 293 293 293 292 292 292 291 291 291 291 290 290 291 291 290 289 287 286 286 287 287 289 290 291 292 292 291 291 291 291 291 291 291 290 289 288 289 289 289 288 287 287 286 282 274 268 266 265 264 263 260
318 318 318 318 319 319 320 320 320 320 319 319 318 318 318 318 317 315 312 310 309 307 305 302 299 296 295 295 295 295 295 295 295 294 294 294 294 294 295 294 293 292 292 291 291 292 293 292 290 288 287 287 288 289 289 290 290 291 291 291 291 291 291 291 291 291 290 290 289 289 289 289 289 289 288 288 288 282 274 268 265 264 263 263 261
319 319 319 319 319 319 320 320 320 319 319 318 318 318 318 317 317 315 312 310 309 307 304 302 299 297 296 296 295 296 296 295 295 295 295 295 295 296 296 295 294 293 293 293 293 294 294 292 290 289 289 290 291 291 291 291 291 291 292 292 291 291 291 291 290 290 289 289 289 289 288 288 289 289 288 289 288 283 275 269 265 262 261 262 262
319 319 319 319 320 320 320 320 320 319 319 318 318 318 318 317 316 314 312 310 309 307 304 302 300 298 297 297 297 297 297 296 295 296 296 295 296 297 297 296 295 295 295 296 296 295 293 291 291 291 291 292 292 292 292 292 292 292 292 292 291 291 291 290 289 289 288 288 288 288 287 288 289 289 289 290 288 283 276 270 266 262 260 260 260
320 320 320 320 320 320 320 320 319 319 318 318 318 318 317 316 315 313 312 310 309 307 305 303 301 300 299 299 298 299 299 298 297 297 297 297 297 297 297 296 295 296 296 296 296 294 292 291 291 291 292 292 292 292 292 293 293 293 293 293 292 291 291 290 289 288 287 287 287 286 285 286 288 289 290 290 288 283 277 271 265 261 259 257 257
321 320 320 320 320 320 320 320 319 318 318 318 318 318 317 316 315 313 312 311 308 306 304 303 301 300 300 299 298 298 298 297 297 297 297 297 297 296 296 296 296 296 295 294 293 292 290 290 291 291 291 291 291 291 291 292 293 293 294 294 293 293 291 290 289 289 288 288 287 285 285 285 286 287 288 288 285 281 277 272 265 259 256 255 253
321 321 321 321 320 320 320 320 319 318 318 318 318 318 317 316 314 313 312 310 308 306 305 303 303 302 302 302 301 300 300 299 299 298 297 296 297 297 297 297 297 296 296 295 293 292 291 291 291 290 290 290 290 290 290 291 291 292 292 292 292 292 291 290 289 289 288 287 286 286 285 285 286 286 286 285 282 278 275 271 263 257 254 252 251
322 322 321 321 321 320 320 320 319 318 318 318 318 318 317 316 315 313 311 309 307 306 305 304 304 303 303 303 303 304 304 304 303 301 299 298 298 298 299 299 299 297 297 296 295 294 294 293 293 292 292 291 291 291 291 291 291 291 290 290 290 289 288 287 287 287 286 286 285 285 284 285 285 286 285 284 279 275 272 268 261 255 251 249 249
323 322 322 321 321 321 320 320 319 319 319 319 319 318 318 316 316 314 311 308 306 305 304 304 305 305 306 305 306 307 307 307 305 304 302 301 300 300 300 301 300 298 298 298 297 296 295 295 294 293 293 292 292 292 292 291 291 290 290 289 288 287 286 285 285 284 284 283 283 283 283 283 284 285 285 282 276 272 269 265 259 254 250 249 249
323 323 322 322 322 322 321 321 320 319 319 319 319 319 318 317 316 315 313 310 307 304 303 304 305 307 308 308 309 310 310 308 307 306 305 304 303 302 303 303 301 300 300 299 298 297 296 296 295 294 293 293 292 292 291 291 290 289 289 288 287 285 284 283 283 282 282 282 282 281 281 282 283 284 283 279 272 268 265 262 257 252 249 248 248
324 323 323 323 323 323 322 321 320 320 320 320 320 320 319 319 318 316 314 312 310 308 307 307 308 309 309 310 311 311 311 310 308 307 306 305 304 304 304 304 302 302 301 300 299 299 298 297 296 295 294 293 293 292 291 290 289 288 287 286 285 284 283 281 281 280 280 280 280 280 280 280 281 282 282 275 268 265 263 259 255 251 249 247 247
325 324 324 324 324 324 323 322 322 322 322 321 322 321 321 320 319 318 317 315 314 313 312 311 311 311 311 311 312 312 311 310 309 308 307 306 306 305 305 305 304 303 302 301 300 300 299 298 297 296 295 294 293 292 291 290 289 288 287 286 284 283 281 280 279 278 278 278 278 278 278 279 279 281 279 272 264 261 260 257 253 250 248 246 245
325 325 325 325 325 325 325 324 324 324 324 323 324 324 323 322 321 320 319 318 317 317 316 315 314 313 313 313 313 313 312 311 310 309 308 307 307 306 306 305 305 304 303 302 301 300 300 299 298 296 295 294 293 292 291 290 289 287 286 285 283 281 280 278 277 276 276 276 275 276 276 277 277 279 276 267 260 258 258 255 252 250 247 245 243
327 326 326 327 327 327 327 327 327 327 327 327 327 326 326 325 324 323 322 321 320 320 319 318 317 316 315 314 314 313 313 312 311 310 309 308 308 307 306 306 305 305 304 303 302 301 301 299 298 297 296 294 293 292 291 290 288 287 285 284 282 280 278 276 275 274 274 273 273 273 274 274 275 276 273 263 256 255 255 253 251 249 246 244 241
328 328 329 329 330 331 332 332 332 331 331 331 330 330 329 327 326 325 324 324 323 322 321 320 319 317 317 316 315 314 314 313 312 310 310 309 308 307 307 306 306 305 305 304 303 302 301 300 299 297 296 295 293 292 291 289 287 285 284 282 280 278 276 274 273 272 271 271 270 271 271 271 272 273 268 258 252 252 252 250 249 247 245 243 241
330 331 332 334 336 337 337 338 337 336 336 334 333 332 331 330 329 328 327 326 325 324 323 322 320 319 318 317 316 315 315 313 312 311 310 309 308 307 307 306 305 305 304 303 302 301 301 300 299 297 296 295 293 292 290 289 287 284 282 280 278 276 274 272 271 269 268 268 268 268 268 268 270 269 263 253 248 248 248 247 246 245 243 242 240
333 334 337 339 341 342 342 342 340 339 338 337 335 334 333 332 331 330 329 328 327 326 325 323 322 321 319 318 317 316 315 315 314 313 311 310 309 308 307 306 305 304 304 303 302 301 300 299 298 297 295 294 292 291 289 288 285 283 281 278 276 273 271 270 268 267 266 265 265 265 265 265 266 265 257 247 244 245 244 244 243 242 240 239 237
336 339 341 343 344 344 344 343 341 340 338 337 335 334 334 333 332 331 330 329 328 327 326 325 323 322 320 319 318 318 317 316 315 314 313 312 311 310 309 308 307 306 305 304 303 301 300 299 298 296 295 293 292 290 288 286 284 282 279 276 273 270 268 267 265 264 263 262 261 261 261 261 262 259 250 242 241 241 240 240 239 238 237 236 234
339 341 343 344 344 343 343 342 340 339 338 337 336 335 334 334 333 332 332 331 330 328 327 326 325 324 322 321 320 319 319 318 317 316 314 313 312 311 310 309 308 307 306 305 304 303 301 300 298 297 295 293 292 290 288 286 283 280 277 274 271 267 265 263 262 261 260 259 258 257 256 256 256 251 242 237 237 237 236 235 234 234 234 233 230
341 342 342 342 342 341 340 340 339 338 337 337 336 335 335 335 334 334 333 332 331 330 329 327 326 325 324 323 322 321 320 319 318 317 315 314 313 312 312 311 310 309 308 306 305 304 302 301 299 298 296 294 292 290 288 285 282 279 275 271 268 264 261 260 258 257 256 254 253 252 251 250 249 242 235 232 232 232 230 230 230 231 231 228 223
340 340 341 340 340 339 339 338 338 338 337 337 337 336 336 336 335 334 334 333 332 331 330 329 327 326 325 324 323 322 321 320 319 318 317 316 315 314 313 312 311 310 309 307 306 304 303 302 300 299 297 295 293 290 287 283 280 276 273 269 264 261 258 256 254 253 251 249 248 246 244 243 241 234 228 227 227 226 226 226 227 227 225 220 215
339 339 339 339 339 338 338 338 337 337 337 337 337 337 337 336 336 335 335 334 333 332 331 330 329 328 327 326 325 324 323 322 321 319 318 317 317 316 315 314 313 311 310 309 307 305 304 303 302 300 298 296 293 290 286 282 278 274 269 265 261 257 254 252 249 247 245 243 241 238 237 235 231 224 221 221 222 221 221 223 223 221 216 212 210
337 338 338 338 338 338 338 338 338 338 338 338 338 337 337 337 336 336 335 334 333 332 332 331 330 329 328 327 326 325 324 323 322 321 320 319 318 318 317 315 314 313 312 310 308 307 306 305 303 302 300 296 293 289 284 280 276 271 266 261 257 254 250 247 243 240 237 234 232 229 228 225 220 216 215 215 216 216 217 218 217 213 207 205 206
336 337 338 338 338 338 338 338 338 338 338 338 338 337 337 337 337 336 335 335 334 333 333 332 331 330 329 329 328 327 326 325 324 323 322 321 320 319 318 317 316 314 313 312 310 309 308 306 305 302 300 296 292 288 283 278 273 267 261 257 253 249 245 240 235 231 227 224 221 219 218 215 211 209 209 209 210 211 213 212 208 203 199 199 202
335 337 337 338 338 338 338 338 338 338 338 338 338 338 338 337 337 336 336 335 335 334 334 333 332 331 331 330 329 328 327 326 325 325 324 323 322 321 320 319 318 316 315 314 312 310 309 307 305 302 299 295 290 286 281 275 269 262 256 251 246 241 236 231 225 220 216 213 210 209 208 205 203 202 203 203 204 206 206 203 198 194 193 195 196
335 336 337 338 338 339 338 339 339 339 339 338 338 338 338 338 337 337 336 336 336 335 335 334 334 333 332 332 331 330 329 328 327 327 326 325 324 323 321 320 319 318 317 315 314 312 310 308 305 302 298 294 288 283 278 271 264 257 249 242 237 232 226 220 214 209 205 202 201 200 198 196 196 196 197 198 199 200 197 193 189 187 187 189 188
Height
5481 5476 5471 5467 5462 5457 5452 5447 5442 5437 5432 5427 5422 5417 5411 5405 5400 5394 5389 5383 5376 5369 5362 5355 5347 5339 5331 5323 5314 5306 5299 5293 5288 5283 5279 5276 5272 5270 5268 5266 5265 5264 5263 5262 5261 5260 5261 5260 5260 5259 5258 5258 5258 5258 5258 5257 5257 5257 5258 5259 5260 5260 5262 5264 5269 5279 5286 5289 5293 5296 5297 5300 5305 5307 5310 5314 5317 5319 5323 5328 5333 5339 5345 5351 5356
5472 5467 5463 5458 5453 5448 5443 5438 5433 5428 5423 5417 5412 5407 5401 5396 5390 5384 5379 5372 5365 5358 5350 5343 5335 5327 5319 5310 5302 5294 5287 5282 5277 5273 5269 5266 5263 5260 5259 5257 5256 5256 5255 5255 5254 5253 5253 5253 5252 5251 5249 5250 5250 5249 5248 5247 5247 5248 5248 5248 5250 5250 5250 5252 5256 5263 5272 5277 5280 5282 5284 5288 5293 5293 5295 5301 5304 5305 5309 5314 5318 5324 5330 5336 5341
5464 5459 5454 5449 5444 5439 5434 5429 5423 5418 5413 5408 5402 5397 5391 5386 5380 5374 5368 5361 5353 5346 5338 5331 5323 5314 5306 5297 5289 5282 5276 5271 5266 5263 5260 5257 5254 5252 5250 5249 5248 5248 5247 5247 5247 5246 5246 5246 5245 5243 5242 5242 5242 5240 5239 5239 5238 5239 5239 5239 5240 5240 5240 5241 5244 5249 5257 5263 5266 5268 5270 5274 5279 5281 5282 5287 5290 5292 5296 5301 5303 5308 5314 5319 5326
5456 5451 5446 5441 5435 5430 5425 5420 5414 5409 5404 5398 5393 5387 5382 5376 5369 5363 5356 5349 5342 5334 5327 5318 5310 5301 5293 5285 5277 5271 5265 5261 5257 5253 5251 5248 5246 5244 5243 5241 5241 5241 5240 5240 5240 5239 5239 5239 5237 5236 5235 5235 5234 5232 5231 5231 5231 5231 5231 5231 5231 5231 5231 5232 5234 5237 5242 5250 5254 5255 5256 5259 5265 5268 5269 5273 5277 5279 5283 5287 5290 5294 5298 5303 5309
5448 5442 5437 5432 5427 5421 5416 5410 5405 5400 5394 5389 5383 5378 5372 5365 5359 5352 5345 5338 5331 5323 5315 5306 5297 5289 5281 5273 5266 5260 5255 5251 5248 5245 5242 5239 5238 5236 5235 5235 5234 5234 5234 5234 5233 5233 5232 5232 5230 5229 5228 5227 5226 5225 5224 5224 5224 5224 5224 5224 5223 5223 5223 5223 5225 5227 5231 5237 5241 5242 5243 5246 5251 5255 5256 5259 5264 5267 5270 5274 5277 5280 5284 5288 5293
5439 5434 5429 5423 5418 5413 5407 5402 5396 5391 5385 5380 5374 5368 5361 5355 5348 5341 5334 5327 5319 5311 5302 5294 5285 5277 5269 5262 5255 5250 5245 5242 5239 5236 5234 5231 5230 5229 5228 5228 5228 5227 5228 5228 5227 5227 5226 5225 5224 5222 5221 5221 5219 5218 5218 5217 5217 5217 5216 5216 5215 5215 5216 5216 5217 5218 5221 5225 5229 5230 5232 5233 5236 5242 5243 5244 5249 5254 5257 5260 5262 5266 5270 5274 5280
5431 5425 5420 5415 5409 5404 5399 5393 5388 5382 5377 5371 5365 5358 5351 5344 5338 5330 5323 5315 5307 5299 5290 5282 5273 5265 5258 5251 5246 5241 5237 5234 5231 5228 5226 5224 5222 5222 5221 5221 5221 5221 5222 5222 5221 5221 5220 5219 5218 5216 5215 5214 5213 5212 5211 5211 5210 5210 5209 5209 5208 5208 5209 5209 5209 5210 5213 5216 5218 5219 5220 5221 5223 5227 5230 5231 5235 5240 5242 5244 5248 5252 5257 5262 5268
5422 5417 5412 5406 5401 5396 5390 5385 5379 5373 5368 5361 5355 5348 5341 5334 5327 5320 5312 5304 5296 5288 5279 5271 5263 5255 5248 5242 5237 5233 5229 5226 5223 5220 5218 5216 5215 5215 5214 5214 5215 5215 5216 5216 5215 5215 5214 5213 5212 5211 5209 5208 5207 5206 5205 5204 5204 5204 5203 5202 5201 5201 5201 5202 5202 5203 5204 5207 5209 5210 5210 5211 5212 5215 5218 5220 5223 5226 5226 5227 5235 5242 5245 5248 5254
5414 5409 5403 5398 5393 5387 5382 5376 5370 5364 5358 5351 5345 5338 5331 5324 5317 5309 5301 5294 5285 5277 5268 5260 5252 5245 5239 5234 5229 5226 5222 5219 5216 5213 5211 5210 5208 5208 5208 5208 5208 5209 5209 5210 5210 5209 5209 5207 5206 5205 5203 5203 5202 5200 5199 5198 5198 5198 5196 5195 5194 5194 5194 5195 5195 5196 5197 5198 5200 5200 5200 5201 5202 5204 5207 5209 5210 5211 5212 5213 5221 5228 5229 5232 5240
5406 5400 5395 5390 5384 5379 5373 5367 5361 5355 5348 5342 5335 5328 5321 5314 5307 5300 5292 5284 5275 5267 5259 5250 5243 5236 5231 5226 5222 5219 5215 5212 5209 5207 5205 5203 5202 5201 5201 5202 5202 5202 5203 5203 5204 5204 5203 5202 5200 5199 5198 5197 5195 5194 5193 5192 5191 5191 5189 5188 5188 5187 5187 5188 5188 5188 5189 5190 5191 5191 5191 5192 5192 5192 5195 5196 5196 5197 5199 5199 5204 5210 5211 5215 5226
5398 5392 5387 5381 5376 5370 5364 5358 5352 5345 5339 5332 5325 5319 5312 5305 5298 5290 5282 5274 5265 5257 5249 5241 5234 5228 5224 5219 5215 5212 5209 5206 5203 5201 5199 5197 5195 5195 5195 5196 5196 5196 5197 5197 5198 5198 5197 5196 5195 5193 5192 5190 5189 5187 5186 5185 5184 5183 5182 5181 5180 5180 5180 5180 5181 5180 5180 5181 5182 5182 5181 5182 5182 5181 5182 5183 5183 5183 5184 5184 5187 5193 5195 5199 5209
5389 5384 5379 5373 5367 5361 5355 5349 5343 5336 5329 5323 5316 5309 5303 5295 5288 5280 5272 5264 5256 5248 5240 5232 5226 5221 5216 5212 5209 5205 5202 5199 5196 5195 5193 5191 5189 5189 5189 5190 5190 5190 5191 5191 5192 5192 5191 5190 5189 5188 5186 5185 5183 5182 5181 5179 5178 5176 5175 5174 5174 5173 5172 5172 5172 5172 5172 5172 5173 5173 5171 5170 5171 5171 5170 5169 5170 5171 5171 5171 5174 5178 5180 5183 5192
5381 5376 5370 5364 5358 5352 5346 5340 5334 5327 5320 5314 5307 5300 5293 5286 5278 5270 5262 5254 5246 5238 5231 5224 5218 5214 5209 5206 5203 5200 5197 5194 5191 5189 5187 5185 5184 5183 5183 5183 5184 5184 5185 5186 5186 5185 5185 5184 5183 5182 5181 5179 5178 5177 5175 5174 5172 5170 5169 5168 5167 5166 5165 5164 5163 5161 5161 5162 5164 5165 5162 5159 5160 5160 5158 5156 5158 5159 5157 5157 5160 5163 5166 5170 5176
5373 5367 5362 5355 5349 5343 5338 5332 5326 5319 5312 5305 5298 5291 5284 5276 5269 5260 5253 5245 5237 5229 5222 5216 5211 5206 5203 5199 5197 5194 5191 5188 5185 5184 5182 5180 5179 5177 5176 5177 5177 5178 5179 5180 5180 5179 5178 5178 5176 5175 5174 5173 5172 5170 5169 5167 5165 5164 5163 5161 5160 5159 5157 5156 5154 5152 5152 5151 5152 5154 5152 5149 5149 5149 5147 5144 5144 5145 5143 5143 5146 5150 5154 5158 5162
5364 5359 5353 5347 5340 5335 5329 5323 5317 5310 5303 5296 5289 5282 5274 5267 5259 5251 5244 5236 5228 5220 5214 5208 5203 5200 5196 5193 5190 5188 5186 5182 5180 5178 5176 5175 5173 5172 5171 5171 5171 5172 5173 5173 5173 5172 5171 5171 5169 5168 5168 5166 5165 5163 5162 5160 5158 5157 5156 5155 5153 5152 5150 5148 5146 5144 5143 5141 5141 5142 5141 5139 5137 5137 5136 5133 5130 5131 5131 5130 5134 5137 5140 5145 5150
5356 5350 5344 5338 5332 5326 5321 5314 5308 5301 5294 5287 5280 5272 5265 5257 5250 5242 5234 5227 5219 5211 5205 5200 5196 5193 5189 5186 5184 5182 5180 5177 5174 5173 5171 5169 5168 5166 5166 5166 5165 5166 5166 5166 5165 5165 5164 5163 5162 5161 5161 5160 5158 5156 5154 5151 5150 5149 5148 5147 5146 5144 5142 5140 5137 5135 5135 5133 5132 5132 5131 5129 5127 5125 5124 5120 5117 5117 5118 5118 5121 5122 5124 5130 5137
5348 5342 5335 5329 5323 5317 5311 5305 5299 5292 5285 5278 5270 5263 5255 5248 5240 5232 5225 5218 5210 5203 5197 5193 5189 5186 5183 5180 5177 5176 5174 5171 5168 5167 5165 5164 5162 5161 5161 5160 5160 5160 5160 5159 5158 5158 5157 5156 5155 5154 5154 5153 5151 5149 5145 5142 5141 5141 5141 5140 5138 5137 5135 5132 5129 5127 5125 5123 5123 5122 5121 5119 5116 5113 5111 5108 5104 5104 5104 5106 5108 5107 5107 5114 5121
5339 5333 5327 5321 5315 5309 5302 5296 5290 5283 5276 5269 5261 5254 5246 5238 5230 5222 5215 5208 5201 5194 5189 5186 5182 5179 5176 5173 5171 5170 5168 5165 5163 5161 5160 5158 5157 5156 5155 5154 5154 5154 5153 5152 5152 5151 5150 5149 5148 5147 5147 5145 5143 5140 5136 5133 5133 5133 5132 5131 5130 5129 5127 5124 5121 5119 5117 5115 5114 5112 5110 5108 5105 5103 5101 5097 5094 5092 5091 5094 5095 5093 5095 5101 5105
5331 5324 5318 5312 5306 5300 5293 5287 5281 5274 5267 5259 5252 5244 5236 5228 5220 5213 5206 5199 5193 5187 5182 5179 5176 5172 5170 5167 5165 5163 5162 5160 5157 5156 5154 5153 5151 5150 5149 5148 5148 5148 5147 5145 5145 5144 5143 5142 5141 5139 5138 5137 5135 5132 5128 5125 5124 5124 5123 5121 5120 5120 5118 5115 5113 5111 5110 5109 5106 5103 5101 5098 5094 5092 5090 5087 5084 5082 5080 5080 5081 5081 5084 5088 5090
5322 5315 5309 5303 5297 5291 5284 5277 5271 5264 5257 5250 5242 5234 5226 5218 5211 5204 5197 5190 5184 5179 5175 5172 5169 5167 5163 5161 5159 5157 5156 5154 5152 5150 5149 5147 5145 5143 5143 5142 5142 5141 5140 5138 5138 5138 5137 5136 5134 5132 5130 5128 5126 5123 5119 5116 5116 5115 5114 5112 5111 5110 5108 5105 5104 5103 5101 5100 5098 5095 5094 5091 5086 5081 5078 5076 5074 5072 5070 5069 5068 5069 5071 5074 5077
5313 5307 5300 5294 5287 5281 5274 5268 5261 5254 5246 5239 5232 5224 5215 5208 5201 5194 5188 5182 5176 5172 5168 5165 5163 5161 5158 5155 5153 5151 5150 5148 5147 5144 5143 5141 5139 5137 5136 5136 5135 5133 5133 5132 5131 5131 5130 5129 5127 5124 5121 5119 5117 5115 5112 5109 5107 5105 5103 5102 5101 5099 5097 5096 5095 5093 5091 5089 5088 5086 5085 5082 5078 5073 5069 5066 5063 5062 5060 5058 5057 5057 5058 5061 5064
5304 5298 5291 5285 5278 5271 5264 5257 5250 5243 5236 5229 5222 5214 5206 5198 5192 5185 5179 5174 5169 5165 5161 5158 5156 5155 5152 5149 5147 5145 5143 5142 5141 5139 5137 5135 5133 5130 5129 5129 5127 5126 5126 5126 5125 5124 5123 5121 5119 5116 5114 5111 5109 5107 5105 5102 5099 5095 5094 5092 5089 5088 5087 5086 5084 5082 5080 5079 5078 5077 5075 5072 5069 5065 5061 5057 5054 5051 5050 5049 5047 5046 5047 5049 5052
5296 5289 5282 5276 5269 5262 5255 5247 5240 5233 5225 5218 5212 5204 5196 5189 5183 5176 5171 5166 5162 5158 5154 5151 5150 5148 5146 5144 5141 5139 5138 5136 5135 5133 5131 5129 5127 5125 5123 5122 5120 5119 5119 5119 5118 5117 5116 5114 5111 5109 5106 5104 5102 5099 5097 5094 5090 5087 5085 5082 5078 5077 5077 5076 5073 5071 5070 5068 5067 5066 5065 5062 5059 5056 5052 5048 5045 5042 5040 5039 5037 5035 5035 5037 5040
5287 5280 5273 5266 5259 5252 5245 5238 5230 5223 5215 5208 5202 5195 5188 5181 5174 5168 5162 5158 5154 5151 5148 5145 5143 5142 5140 5138 5136 5134 5132 5131 5129 5127 5125 5123 5121 5119 5117 5115 5113 5112 5112 5111 5110 5109 5108 5106 5104 5102 5100 5097 5094 5091 5088 5085 5082 5079 5077 5074 5070 5068 5067 5065 5063 5062 5060 5058 5056 5055 5054 5051 5049 5046 5043 5040 5037 5034 5031 5029 5027 5025 5025 5027 5030
5278 5271 5264 5257 5250 5244 5237 5229 5221 5213 5206 5199 5192 5185 5179 5172 5166 5160 5155 5150 5147 5144 5142 5139 5137 5135 5134 5132 5130 5128 5126 5124 5123 5120 5119 5117 5115 5113 5111 5109 5107 5105 5104 5103 5102 5101 5100 5098 5096 5095 5092 5090 5086 5083 5080 5077 5074 5072 5069 5066 5063 5060 5058 5056 5054 5053 5051 5049 5047 5045 5044 5041 5038 5036 5034 5031 5029 5026 5023 5020 5019 5017 5016 5018 5021
5270 5263 5256 5249 5242 5235 5228 5220 5212 5204 5197 5190 5183 5176 5170 5164 5158 5153 5147 5143 5140 5138 5135 5133 5131 5129 5128 5126 5125 5123 5121 5118 5116 5114 5112 5110 5109 5107 5105 5104 5102 5099 5097 5096 5094 5092 5091 5090 5088 5086 5083 5080 5078 5075 5072 5070 5066 5063 5061 5058 5054 5051 5049 5047 5045 5043 5042 5040 5038 5036 5034 5031 5029 5026 5024 5022 5020 5017 5014 5012 5011 5010 5009 5009 5012
5262 5255 5248 5241 5233 5226 5219 5212 5204 5196 5188 5180 5173 5167 5161 5156 5151 5146 5141 5137 5134 5131 5129 5127 5125 5123 5122 5120 5119 5117 5115 5112 5110 5107 5105 5103 5101 5100 5098 5097 5095 5093 5091 5089 5086 5084 5083 5081 5079 5076 5073 5071 5069 5066 5064 5061 5058 5055 5052 5049 5046 5043 5040 5038 5036 5034 5033 5031 5029 5027 5025 5022 5019 5017 5014 5013 5011 5009 5006 5004 5004 5004 5002 5001 5004
5254 5247 5240 5232 5225 5218 5211 5203 5196 5188 5180 5172 5165 5159 5153 5148 5143 5139 5134 5130 5128 5125 5123 5121 5119 5117 5116 5115 5113 5111 5110 5107 5103 5101 5099 5096 5094 5092 5091 5090 5088 5086 5084 5081 5079 5077 5075 5072 5069 5066 5063 5061 5059 5056 5053 5051 5048 5045 5043 5040 5037 5034 5031 5029 5027 5026 5024 5022 5020 5019 5016 5013 5011 5008 5005 5004 5002 5000 4998 4996 4996 4997 4995 4995 4997
5246 5239 5231 5224 5216 5209 5202 5194 5186 5179 5172 5164 5157 5151 5145 5140 5136 5133 5128 5123 5121 5119 5117 5115 5113 5111 5110 5109 5107 5106 5104 5101 5097 5095 5092 5089 5087 5085 5083 5081 5079 5077 5075 5073 5071 5069 5066 5062 5059 5056 5053 5051 5048 5045 5042 5039 5037 5035 5033 5031 5028 5026 5023 5021 5019 5017 5016 5014 5012 5010 5008 5005 5002 4999 4997 4995 4994 4992 4990 4989 4989 4989 4989 4990 4992
5238 5230 5222 5215 5207 5200 5193 5185 5177 5170 5163 5157 5151 5145 5139 5133 5129 5126 5122 5118 5115 5112 5111 5109 5107 5105 5104 5103 5101 5099 5098 5095 5092 5089 5086 5082 5080 5078 5076 5073 5071 5069 5067 5064 5062 5060 5057 5053 5050 5047 5044 5042 5039 5036 5032 5029 5026 5024 5022 5020 5018 5016 5014 5012 5010 5009 5007 5006 5005 5003 5000 4998 4995 4992 4989 4987 4985 4984 4983 4982 4982 4983 4983 4984 4986
5230 5222 5213 5206 5198 5190 5183 5175 5168 5161 5154 5148 5144 5139 5134 5129 5123 5119 5115 5113 5110 5107 5104 5103 5101 5100 5099 5098 5096 5094 5092 5090 5087 5084 5080 5076 5074 5072 5070 5067 5065 5063 5061 5059 5057 5054 5050 5047 5044 5040 5037 5034 5031 5027 5024 5020 5017 5014 5011 5009 5007 5005 5003 5001 4999 4998 4998 4997 4996 4994 4993 4991 4988 4985 4982 4979 4977 4976 4976 4976 4976 4976 4977 4978 4980
5222 5213 5205 5197 5189 5181 5173 5166 5159 5152 5146 5141 5136 5132 5128 5124 5120 5115 5110 5106 5104 5101 5099 5097 5095 5094 5092 5091 5090 5088 5086 5084 5082 5079 5075 5071 5068 5065 5063 5061 5058 5056 5054 5052 5049 5046 5043 5040 5038 5034 5030 5027 5023 5020 5016 5013 5010 5007 5003 5001 4998 4995 4993 4992 4990 4989 4988 4987 4986 4985 4984 4982 4981 4978 4976 4973 4971 4970 4969 4969 4970 4970 4971 4973 4974
5213 5205 5196 5188 5179 5171 5164 5157 5150 5144 5139 5134 5129 5125 5121 5118 5115 5112 5107 5103 5099 5096 5093 5091 5089 5088 5087 5085 5083 5081 5079 5077 5075 5072 5068 5065 5061 5058 5056 5054 5051 5047 5045 5043 5039 5036 5033 5030 5027 5024 5021 5018 5014 5011 5007 5004 5001 4998 4996 4994 4991 4988 4985 4983 4982 4981 4980 4979 4978 4977 4976 4975 4973 4971 4969 4966 4965 4964 4964 4964 4964 4965 4966 4967 4969
5203 5195 5186 5178 5170 5163 5155 5148 5142 5137 5132 5127 5123 5119 5115 5111 5108 5106 5103 5100 5096 5092 5089 5086 5083 5082 5080 5078 5077 5075 5073 5070 5066 5063 5060 5057 5054 5050 5048 5046 5043 5038 5036 5033 5030 5027 5023 5020 5017 5014 5011 5008 5004 5001 4998 4994 4991 4989 4987 4985 4983 4980 4978 4976 4975 4974 4972 4971 4970 4970 4968 4967 4966 4964 4962 4960 4959 4958 4958 4958 4959 4960 4961 4963 4964
5193 5185 5176 5168 5161 5154 5147 5140 5135 5130 5125 5121 5117 5113 5109 5106 5103 5100 5098 5095 5093 5090 5086 5082 5079 5076 5074 5071 5069 5067 5065 5063 5059 5055 5051 5048 5044 5041 5039 5037 5034 5029 5026 5023 5020 5017 5014 5011 5007 5004 5001 4998 4995 4992 4988 4985 4982 4979 4977 4975 4973 4972 4970 4968 4966 4965 4964 4963 4963 4962 4961 4960 4959 4957 4955 4954 4953 4953 4953 4953 4954 4955 4956 4958 4959
5184 5175 5166 5159 5152 5145 5139 5133 5128 5123 5119 5115 5111 5107 5104 5101 5098 5095 5093 5091 5088 5086 5083 5078 5075 5072 5069 5066 5063 5061 5058 5054 5051 5048 5043 5039 5035 5031 5029 5027 5024 5020 5016 5013 5009 5006 5003 5000 4997 4993 4990 4987 4984 4981 4979 4976 4973 4970 4968 4966 4964 4963 4961 4959 4958 4957 4956 4956 4955 4954 4954 4953 4952 4950 4949 4948 4947 4947 4948 4948 4949 4951 4952 4953 4955
5175 5166 5157 5150 5143 5137 5131 5126 5121 5117 5113 5109 5106 5103 5100 5097 5094 5091 5089 5087 5084 5082 5079 5075 5071 5067 5063 5060 5058 5055 5052 5048 5044 5040 5035 5031 5026 5022 5019 5016 5013 5010 5006 5002 4998 4995 4993 4989 4986 4982 4979 4976 4973 4970 4968 4965 4962 4960 4958 4956 4955 4954 4952 4951 4950 4949 4949 4948 4948 4947 4947 4946 4945 4944 4943 4942 4942 4942 4943 4944 4945 4946 4947 4949 4950
5165 5157 5149 5142 5135 5130 5124 5119 5115 5111 5108 5104 5101 5098 5096 5093 5090 5088 5085 5083 5080 5077 5074 5071 5067 5063 5059 5055 5051 5048 5045 5041 5037 5032 5027 5023 5018 5013 5009 5005 5001 4998 4995 4992 4988 4985 4982 4979 4975 4972 4968 4965 4962 4959 4957 4954 4951 4950 4948 4947 4946 4945 4943 4942 4942 4941 4941 4941 4940 4940 4940 4939 4938 4937 4937 4937 4937 4937 4938 4939 4940 4942 4943 4945 4946
5157 5149 5142 5135 5129 5123 5119 5114 5111 5107 5104 5101 5098 5095 5093 5090 5087 5085 5082 5079 5076 5073 5070 5066 5062 5058 5054 5050 5046 5042 5038 5034 5029 5024 5019 5014 5009 5004 5000 4995 4991 4987 4983 4980 4976 4973 4970 4967 4964 4961 4957 4954 4950 4948 4946 4944 4941 4939 4938 4937 4936 4936 4935 4934 4933 4933 4933 4933 4933 4933 4933 4933 4932 4931 4931 4931 4932 4932 4934 4935 4936 4937 4939 4940 4942
5150 5142 5136 5129 5124 5119 5114 5110 5107 5104 5101 5098 5095 5093 5090 5087 5084 5081 5078 5075 5072 5068 5065 5061 5057 5052 5048 5044 5040 5036 5032 5028 5022 5017 5012 5007 5001 4996 4991 4986 4982 4977 4973 4968 4964 4960 4957 4954 4951 4948 4945 4942 4938 4936 4934 4933 4931 4929 4928 4927 4927 4926 4926 4925 4925 4925 4925 4926 4926 4927 4927 4926 4926 4926 4926 4926 4927 4928 4929 4931 4932 4933 4935 4936 4938
5144 5137 5131 5125 5120 5116 5112 5108 5105 5102 5099 5096 5093 5090 5087 5084 5081 5078 5074 5071 5067 5064 5060 5055 5051 5046 5042 5037 5033 5028 5024 5020 5015 5010 5005 5000 4995 4989 4984 4979 4974 4969 4965 4960 4955 4950 4946 4942 4939 4936 4933 4930 4927 4924 4922 4921 4920 4919 4918 4917 4917 4917 4916 4916 4917 4917 4918 4919 4920 4920 4920 4920 4920 4920 4921 4921 4922 4924 4925 4926 4928 4929 4931 4933 4935
5140 5134 5128 5123 5118 5114 5110 5107 5103 5100 5097 5094 5091 5088 5084 5081 5077 5074 5070 5066 5062 5059 5055 5050 5045 5040 5035 5030 5025 5021 5016 5011 5007 5002 4997 4991 4986 4981 4976 4970 4965 4961 4956 4951 4946 4941 4937 4932 4928 4924 4921 4918 4915 4912 4910 4909 4908 4908 4907 4907 4907 4907 4907 4907 4908 4909 4910 4912 4913 4914 4914 4914 4915 4915 4916 4916 4918 4920 4921 4923 4924 4926 4928 4930 4932
5137 5131 5126 5121 5117 5113 5109 5105 5102 5098 5095 5091 5088 5084 5081 5078 5074 5070 5066 5062 5057 5053 5049 5045 5040 5035 5029 5023 5018 5013 5008 5002 4997 4992 4987 4981 4976 4971 4965 4960 4955 4950 4945 4940 4935 4930 4926 4922 4917 4913 4909 4906 4903 4901 4898 4897 4896 4896 4896 4896 4897 4897 4897 4898 4899 4901 4903 4905 4906 4907 4908 4908 4909 4910 4911 4912 4914 4916 4917 4919 4921 4923 4925 4927 4929
5135 5129 5125 5120 5116 5112 5108 5104 5100 5096 5092 5089 5085 5081 5077 5074 5070 5066 5061 5057 5053 5048 5043 5038 5034 5029 5023 5017 5011 5005 5000 4994 4988 4983 4977 4971 4966 4960 4955 4949 4944 4938 4933 4928 4923 4918 4913 4909 4905 4901 4897 4894 4891 4889 4887 4885 4884 4884 4885 4885 4886 4887 4888 4888 4890 4892 4895 4897 4899 4901 4902 4903 4904 4905 4906 4908 4910 4912 4914 4916 4918 4920 4922 4924 4926
5133 5128 5123 5119 5114 5110 5105 5101 5097 5094 5090 5086 5082 5078 5074 5070 5066 5061 5057 5052 5048 5043 5037 5032 5027 5022 5016 5011 5004 4998 4992 4986 4980 4974 4968 4962 4956 4951 4945 4939 4933 4927 4921 4916 4910 4905 4900 4896 4893 4889 4885 4882 4880 4878 4876 4874 4873 4873 4874 4874 4875 4876 4877 4879 4881 4884 4887 4890 4892 4894 4896 4897 4898 4900 4902 4904 4906 4909 4911 4913 4915 4917 4919 4921 4923
5131 5126 5121 5117 5112 5107 5103 5099 5094 5091 5087 5083 5079 5074 5070 5066 5061 5057 5052 5047 5042 5037 5032 5026 5021 5015 5009 5003 4997 4991 4984 4978 4972 4965 4959 4953 4946 4940 4934 4928 4922 4916 4910 4904 4898 4893 4889 4885 4881 4878 4875 4872 4869 4867 4865 4864 4863 4863 4864 4864 4865 4866 4868 4870 4873 4877 4880 4883 4886 4888 4890 4892 4894 4896 4898 4901 4903 4905 4908 4910 4912 4915 4917 4919 4921
5128 5124 5119 5114 5109 5105 5100 5096 5092 5087 5083 5079 5075 5071 5066 5062 5057 5052 5047 5042 5037 5032 5026 5020 5014 5008 5002 4996 4989 4983 4976 4969 4963 4956 4950 4943 4936 4930 4923 4916 4910 4904 4898 4892 4887 4882 4878 4874 4871 4868 4864 4862 4859 4857 4855 4854 4854 4854 4855 4855 4856 4858 4860 4863 4866 4869 4873 4876 4879 4882 4885 4887 4889 4892 4895 4897 4900 4903 4905 4908 4910 4912 4915 4917 4919
5126 5121 5116 5112 5107 5102 5098 5093 5089 5085 5080 5076 5072 5067 5063 5058 5053 5048 5043 5038 5032 5026 5021 5014 5008 5002 4995 4988 4982 4975 4968 4961 4954 4947 4940 4933 4926 4919 4912 4905 4899 4892 4887 4881 4876 4872 4868 4864 4861 4858 4855 4852 4850 4848 4847 4846 4846 4846 4847 4848 4849 4851 4853 4856 4859 4863 4867 4870 4874 4877 4880 4882 4885 4889 4892 4895 4897 4900 4903 4905 4908 4910 4912 4915 4917
5123 5118 5113 5109 5104 5100 5095 5091 5086 5082 5077 5073 5069 5064 5059 5054 5049 5044 5039 5033 5027 5021 5015 5009 5002 4995 4988 4982 4975 4967 4960 4953 4945 4938 4931 4923 4915 4908 4901 4894 4888 4882 4876 4871 4866 4862 4858 4854 4851 4848 4845 4843 4841 4840 4839 4839 4839 4839 4840 4841 4843 4845 4847 4850 4854 4857 4861 4865 4869 4872 4875 4879 4882 4886 4889 4892 4895 4898 4901 4904 4906 4908 4911 4913 4916
5120 5115 5111 5106 5101 5097 5092 5088 5083 5079 5074 5070 5065 5061 5056 5051 5045 5040 5034 5029 5022 5016 5009 5003 4996 4989 4982 4975 4968 4960 4952 4945 4937 4929 4921 4913 4905 4898 4891 4884 4878 4872 4867 4862 4857 4852 4848 4845 4842 4839 4837 4835 4833 4832 4832 4832 4833 4833 4834 4836 4838 4840 4843 4846 4849 4852 4856 4861 4865 4868 4872 4876 4880 4883 4887 4890 4893 4896 4899 4902 4905 4907 4909 4912 4914
5117 5112 5108 5103 5098 5094 5089 5085 5080 5076 5071 5067 5062 5057 5052 5047 5042 5036 5030 5024 5018 5011 5004 4997 4990 4983 4976 4968 4960 4953 4945 4936 4928 4920 4912 4904 4896 4888 4881 4875 4869 4863 4858 4852 4848 4843 4839 4836 4833 4831 4829 4828 4827 4826 4826 4827 4827 4828 4830 4832 4834 4836 4839 4841 4845 4849 4853 4857 4862 4866 4870 4874 4878 4882 4885 4889 4892 4895 4898 4901 4904 4906 4909 4911 4914